Location: Chuathbaluk
(61.5726°N, 159.2454°W)
Time: 05:27:59
(UTC+00:00)

Explorer 7 - Pass Details

Date: 09 December 2021
Orbit: 483 x 674 km, 50.3° (Epoch: 25 January)

Event Time Altitude Azimuth Distance (km) Brightness Sun altitude
Rises 18:28:40 0° 256° (WSW) 2,768 10.0 -7.1°
Reaches altitude 10° 18:31:56 10° 230° (SW) 1,822 9.3 -6.8°
Maximum altitude 18:34:00 14° 200° (SSW) 1,572 9.4 -6.6°
Drops below altitude 10° 18:36:03 10° 169° (S) 1,765 10.2 -6.4°
Sets 18:39:06 0° 142° (SE) 2,613 12.2 -6.2°
